FW8685 Weather Reports


time (UTC)temp
C
wind
direction
speed
KPH
gust
KPH
rain 1hr
cm
rain 24hr
cm
rain mn
cm
humidity
%
barometer
mb
20260902215524 38 128 16.1 29.0 0.00 0.00 0.00 32 1009.4
20260902215024 38 123 17.7 30.6 0.00 0.00 0.00 31 1009.5
20260902214546 38 117 19.3 32.2 0.00 0.00 0.00 32 1009.5
20260902214024 38 139 19.3 32.2 0.00 0.00 0.00 30 1009.6
20260902213525 38 120 17.7 32.2 0.00 0.00 0.00 29 1009.6
20260902213052 38 153 12.9 32.2 0.00 0.00 0.00 30 1009.6
20260902212525 38 123 17.7 33.8 0.00 0.00 0.00 30 1009.7
20260902212024 38 122 24.1 33.8 0.00 0.00 0.00 30 1009.7
20260902211552 38 129 8.0 22.5 0.00 0.00 0.00 31 1009.8
20260902211026 38 146 11.3 27.4 0.00 0.00 0.00 30 1010.0
20260902210525 38 144 11.3 32.2 0.00 0.00 0.00 31 1010.0
20260902210047 38 145 19.3 32.2 0.00 0.00 0.00 31 1010.1
20260902205525 38 103 20.9 32.2 0.00 0.00 0.00 32 1010.1
20260902205024 38 141 17.7 32.2 0.00 0.00 0.00 32 1010.1
20260902204547 38 169 14.5 27.4 0.00 0.00 0.00 31 1010.3
20260902204024 38 157 11.3 27.4 0.00 0.00 0.00 31 1010.3
20260902203523 38 126 9.7 30.6 0.00 0.00 0.00 31 1010.3
20260902203046 38 151 14.5 30.6 0.00 0.00 0.00 30 1010.4
20260902202524 39 113 16.1 25.7 0.00 0.00 0.00 31 1010.5
20260902202024 39 138 9.7 29.0 0.00 0.00 0.00 32 1010.6
20260902201542 38 178 17.7 37.0 0.00 0.00 0.00 31 1010.7
20260902201023 38 115 17.7 37.0 0.00 0.00 0.00 31 1010.6
20260902200528 38 117 19.3 32.2 0.00 0.00 0.00 33 1010.7
20260902200045 38 96 17.7 33.8 0.00 0.00 0.00 33 1010.8
20260902195523 38 112 19.3 33.8 0.00 0.00 0.00 32 1010.8
20260902195025 39 101 14.5 29.0 0.00 0.00 0.00 33 1010.8
20260902194544 38 102 17.7 29.0 0.00 0.00 0.00 33 1010.9
20260902194025 38 106 16.1 33.8 0.00 0.00 0.00 32 1011.0
20260902193524 38 90 17.7 33.8 0.00 0.00 0.00 33 1011.1
20260902193049 38 127 19.3 30.6 0.00 0.00 0.00 33 1011.1
20260902192524 38 101 17.7 30.6 0.00 0.00 0.00 35 1011.1
20260902192024 38 111 14.5 30.6 0.00 0.00 0.00 35 1011.3
20260902191546 38 123 19.3 30.6 0.00 0.00 0.00 34 1011.3
20260902191026 38 117 16.1 38.6 0.00 0.00 0.00 37 1011.4
20260902190525 38 117 20.9 38.6 0.00 0.00 0.00 37 1011.4
20260902190046 38 134 14.5 30.6 0.00 0.00 0.00 36 1011.6
20260902185524 38 149 19.3 40.2 0.00 0.00 0.00 36 1011.7
20260902185024 38 96 20.9 40.2 0.00 0.00 0.00 36 1011.7
20260902184552 38 104 20.9 37.0 0.00 0.00 0.00 36 1011.8
20260902184023 38 144 11.3 29.0 0.00 0.00 0.00 37 1011.9
20260902183524 38 126 19.3 32.2 0.00 0.00 0.00 38 1012.0
20260902183045 37 124 17.7 37.0 0.00 0.00 0.00 37 1012.0
20260902182523 37 148 16.1 37.0 0.00 0.00 0.00 37 1012.2
20260902182025 37 107 19.3 32.2 0.00 0.00 0.00 38 1012.2
20260902181546 37 103 16.1 32.2 0.00 0.00 0.00 39 1012.3
20260902181026 37 109 20.9 33.8 0.00 0.00 0.00 39 1012.4
20260902180523 37 113 22.5 37.0 0.00 0.00 0.00 39 1012.4
20260902175522 37 113 14.5 27.4 0.00 0.00 0.00 39 1012.4
20260902175025 37 121 16.1 32.2 0.00 0.00 0.00 40 1012.5
20260902174549 37 136 17.7 37.0 0.00 0.00 0.00 40 1012.7
20260902174024 37 153 17.7 37.0 0.00 0.00 0.00 40 1012.7
20260902173526 37 147 25.7 37.0 0.00 0.00 0.00 40 1012.8
20260902173046 36 154 16.1 30.6 0.00 0.00 0.00 42 1012.9
20260902172526 36 130 16.1 30.6 0.00 0.00 0.00 41 1012.9
20260902172024 36 132 19.3 30.6 0.00 0.00 0.00 42 1013.0
20260902171548 36 128 22.5 30.6 0.00 0.00 0.00 42 1013.0
20260902171024 36 102 16.1 30.6 0.00 0.00 0.00 42 1013.0
20260902170525 36 122 14.5 30.6 0.00 0.00 0.00 43 1013.1
20260902170047 36 138 17.7 29.0 0.00 0.00 0.00 43 1013.2
20260902165525 36 124 16.1 32.2 0.00 0.00 0.00 43 1013.1
20260902165028 35 146 16.1 32.2 0.00 0.00 0.00 44 1013.1
20260902164545 35 136 16.1 30.6 0.00 0.00 0.00 44 1013.2
20260902164024 35 155 14.5 35.4 0.00 0.00 0.00 45 1013.3
20260902163524 35 144 17.7 35.4 0.00 0.00 0.00 45 1013.3
20260902163051 35 153 19.3 33.8 0.00 0.00 0.00 45 1013.5
20260902162524 35 110 14.5 29.0 0.00 0.00 0.00 46 1013.5
20260902162024 35 157 16.1 30.6 0.00 0.00 0.00 45 1013.5
20260902161553 35 130 17.7 30.6 0.00 0.00 0.00 46 1013.5
20260902161026 34 150 16.1 35.4 0.00 0.00 0.00 47 1013.5
20260902160525 34 146 19.3 38.6 0.00 0.00 0.00 46 1013.5
20260902160044 34 103 14.5 38.6 0.00 0.00 0.00 47 1013.6
20260902155528 34 143 24.1 38.6 0.00 0.00 0.00 47 1013.6
20260902155026 34 138 14.5 32.2 0.00 0.00 0.00 48 1013.5
20260902154544 33 127 14.5 32.2 0.00 0.00 0.00 48 1013.7
20260902154025 33 161 19.3 32.2 0.00 0.00 0.00 48 1013.6
20260902153525 33 159 19.3 32.2 0.00 0.00 0.00 49 1013.6
20260902153050 33 137 17.7 35.4 0.00 0.00 0.00 49 1013.6
20260902152526 32 130 16.1 35.4 0.00 0.00 0.00 51 1013.6
20260902152023 32 133 19.3 35.4 0.00 0.00 0.00 51 1013.6
20260902151545 32 154 14.5 29.0 0.00 0.00 0.00 52 1013.6
20260902151027 32 131 14.5 25.7 0.00 0.00 0.00 53 1013.6
20260902150524 32 123 17.7 32.2 0.00 0.00 0.00 53 1013.6
20260902150045 32 138 20.9 32.2 0.00 0.00 0.00 53 1013.6
20260902145523 31 103 16.1 32.2 0.00 0.00 0.00 54 1013.6
20260902145026 31 153 17.7 32.2 0.00 0.00 0.00 54 1013.6
20260902144543 31 148 16.1 32.2 0.00 0.00 0.00 55 1013.5
20260902144024 31 140 16.1 29.0 0.00 0.00 0.00 56 1013.6
20260902143523 30 119 11.3 25.7 0.00 0.00 0.00 57 1013.6
20260902143045 30 116 14.5 25.7 0.00 0.00 0.00 57 1013.6
20260902142520 30 123 11.3 24.1 0.00 0.00 0.00 59 1013.6
20260902142025 29 119 12.9 22.5 0.00 0.00 0.00 60 1013.6
20260902141544 29 119 9.7 19.3 0.00 0.00 0.00 61 1013.6
20260902141024 28 111 11.3 19.3 0.00 0.00 0.00 62 1013.5
20260902140524 28 124 11.3 19.3 0.00 0.00 0.00 63 1013.6
20260902140042 28 132 9.7 19.3 0.00 0.00 0.00 64 1013.6
20260902135524 27 112 9.7 16.1 0.00 0.00 0.00 65 1013.7
20260902135025 27 113 9.7 17.7 0.00 0.00 0.00 66 1013.6
20260902134544 27 107 9.7 17.7 0.00 0.00 0.00 67 1013.6
20260902134022 26 109 9.7 17.7 0.00 0.00 0.00 68 1013.6
20260902133524 26 103 9.7 17.7 0.00 0.00 0.00 69 1013.5
20260902133045 25 98 11.3 16.1 0.00 0.00 0.00 70 1013.5
20260902132524 25 129 9.7 16.1 0.00 0.00 0.00 71 1013.4
20260902132023 25 97 11.3 16.1 0.00 0.00 0.00 72 1013.4
20260902131544 24 107 9.7 16.1 0.00 0.00 0.00 74 1013.5
20260902131025 23 115 11.3 14.5 0.00 0.00 0.00 75 1013.4
20260902130531 23 128 8.0 14.5 0.00 0.00 0.00 76 1013.5
20260902130056 23 112 8.0 12.9 0.00 0.00 0.00 77 1013.3
20260902125523 22 105 6.4 11.3 0.00 0.00 0.00 78 1013.2
20260902125027 22 94 4.8 12.9 0.00 0.00 0.00 79 1013.2
20260902124545 22 117 6.4 12.9 0.00 0.00 0.00 79 1013.1
20260902124023 22 115 6.4 11.3 0.00 0.00 0.00 79 1013.0
20260902123524 21 110 4.8 9.7 0.00 0.00 0.00 79 1013.0
20260902123054 21 112 4.8 6.4 0.00 0.00 0.00 78 1013.0
20260902122524 21 118 4.8 6.4 0.00 0.00 0.00 78 1012.9
20260902122022 21 115 4.8 9.7 0.00 0.00 0.00 78 1012.8
20260902121541 21 117 3.2 9.7 0.00 0.00 0.00 78 1012.8
20260902121025 21 119 4.8 9.7 0.00 0.00 0.00 77 1012.8
20260902120525 21 121 4.8 9.7 0.00 0.00 0.00 77 1012.8
20260902120044 21 111 4.8 11.3 0.00 0.00 0.00 77 1012.8
20260902115526 21 117 4.8 11.3 0.00 0.00 0.00 77 1012.8
20260902115025 21 103 6.4 12.9 0.00 0.00 0.00 77 1012.7
20260902114543 21 116 6.4 12.9 0.00 0.00 0.00 77 1012.6
20260902114022 22 111 4.8 11.3 0.00 0.00 0.00 76 1012.6
20260902113523 22 101 6.4 11.3 0.00 0.00 0.00 76 1012.6
20260902113047 22 107 6.4 11.3 0.00 0.00 0.00 76 1012.6
20260902112528 22 111 4.8 9.7 0.00 0.00 0.00 75 1012.7
20260902112024 22 103 4.8 6.4 0.00 0.00 0.00 75 1012.5
20260902111547 22 109 4.8 6.4 0.00 0.00 0.00 75 1012.6
20260902111024 22 119 4.8 9.7 0.00 0.00 0.00 75 1012.6
20260902110528 22 119 3.2 12.9 0.00 0.00 0.00 75 1012.7
20260902110048 22 120 4.8 12.9 0.00 0.00 0.00 75 1012.5
20260902105524 22 107 9.7 12.9 0.00 0.00 0.00 75 1012.4
20260902105025 22 103 8.0 12.9 0.00 0.00 0.00 75 1012.5
20260902104552 22 105 8.0 12.9 0.00 0.00 0.00 74 1012.4
20260902104025 22 105 6.4 11.3 0.00 0.00 0.00 73 1012.5
20260902103528 22 104 4.8 9.7 0.00 0.00 0.00 73 1012.4
20260902103043 22 104 4.8 9.7 0.00 0.00 0.00 73 1012.4
20260902102525 22 108 4.8 9.7 0.00 0.00 0.00 73 1012.4
20260902102026 22 108 4.8 11.3 0.00 0.00 0.00 73 1012.3
20260902101549 22 116 6.4 12.9 0.00 0.00 0.00 73 1012.3
20260902101025 22 107 6.4 12.9 0.00 0.00 0.00 73 1012.3
20260902100524 22 101 6.4 11.3 0.00 0.00 0.00 73 1012.3
20260902095523 22 113 4.8 9.7 0.00 0.00 0.00 72 1012.2
20260902095024 22 112 6.4 9.7 0.00 0.00 0.00 72 1012.2
20260902094543 22 117 4.8 9.7 0.00 0.00 0.00 72 1012.1
20260902094024 22 115 4.8 9.7 0.00 0.00 0.00 72 1012.1
20260902093524 22 109 4.8 9.7 0.00 0.00 0.00 72 1012.2
20260902093050 22 119 4.8 9.7 0.00 0.00 0.00 72 1012.1
20260902092524 22 117 4.8 9.7 0.00 0.00 0.00 71 1012.0
20260902092028 22 113 4.8 9.7 0.00 0.00 0.00 71 1012.1
20260902091545 23 110 4.8 9.7 0.00 0.00 0.00 71 1012.1
20260902091026 23 120 4.8 9.7 0.00 0.00 0.00 71 1012.0
20260902090524 23 113 4.8 9.7 0.00 0.00 0.00 71 1012.1
20260902090043 23 111 4.8 9.7 0.00 0.00 0.00 70 1012.1
20260902085524 23 111 4.8 9.7 0.00 0.00 0.00 70 1012.0
20260902085025 23 120 4.8 6.4 0.00 0.00 0.00 69 1012.0
20260902084551 23 115 4.8 9.7 0.00 0.00 0.00 69 1012.0
20260902084024 23 111 4.8 9.7 0.00 0.00 0.00 69 1011.9
20260902083524 23 119 4.8 8.0 0.00 0.00 0.00 68 1011.9
20260902083047 23 119 4.8 9.7 0.00 0.00 0.00 68 1011.9
20260902082524 23 109 4.8 9.7 0.00 0.00 0.00 67 1011.9
20260902082024 23 107 4.8 6.4 0.00 0.00 0.00 67 1011.9
20260902081549 23 108 4.8 6.4 0.00 0.00 0.00 67 1011.9
20260902081024 24 113 4.8 9.7 0.00 0.00 0.00 67 1011.9
20260902080524 24 114 4.8 9.7 0.00 0.00 0.00 66 1011.9
20260902080042 24 124 4.8 9.7 0.00 0.00 0.00 66 1011.9
20260902075524 24 114 4.8 11.3 0.00 0.00 0.00 66 1011.8
20260902075024 24 118 6.4 11.3 0.00 0.00 0.00 66 1011.8
20260902074546 24 111 6.4 12.9 0.00 0.00 0.00 65 1011.8
20260902074026 24 109 6.4 12.9 0.00 0.00 0.00 65 1011.7
20260902073525 25 108 8.0 12.9 0.00 0.00 0.00 65 1011.8
20260902073051 25 105 8.0 12.9 0.00 0.00 0.00 64 1011.8
20260902072524 25 108 8.0 12.9 0.00 0.00 0.00 64 1011.8
20260902072028 25 105 9.7 12.9 0.00 0.00 0.00 64 1011.7
20260902071543 25 109 8.0 11.3 0.00 0.00 0.00 63 1011.8
20260902071025 25 107 6.4 12.9 0.00 0.00 0.00 63 1011.8
20260902070524 25 112 6.4 12.9 0.00 0.00 0.00 63 1011.8
20260902070051 25 109 8.0 12.9 0.00 0.00 0.00 62 1011.9
20260902065524 25 107 6.4 12.9 0.00 0.00 0.00 62 1011.9
20260902065025 25 104 8.0 12.9 0.00 0.00 0.00 62 1011.9
20260902064552 25 121 8.0 14.5 0.00 0.00 0.00 62 1011.8
20260902064024 25 100 8.0 14.5 0.00 0.00 0.00 62 1011.8
20260902063524 25 113 9.7 14.5 0.00 0.00 0.00 62 1011.9
20260902063050 25 113 8.0 14.5 0.00 0.00 0.00 61 1011.8
20260902062524 26 109 9.7 14.5 0.00 0.00 0.00 61 1011.8
20260902062027 26 360 9.7 12.9 0.00 0.00 0.00 61 1011.7
20260902061604 26 119 8.0 14.5 0.00 0.00 0.00 61 1011.8
20260902061026 26 98 9.7 14.5 0.00 0.00 0.00 61 1011.8
20260902060526 26 109 9.7 16.1 0.00 0.00 0.00 61 1011.7
20260902060045 26 111 11.3 16.1 0.00 0.00 0.00 61 1011.7
20260902055525 26 106 11.3 17.7 0.00 0.00 0.00 61 1011.7
20260902055025 26 115 11.3 17.7 0.00 0.00 0.00 61 1011.7
20260902054550 26 115 11.3 16.1 0.00 0.00 0.00 61 1011.8
20260902054025 26 112 11.3 16.1 0.00 0.00 0.00 60 1011.7
20260902053524 26 127 9.7 16.1 0.00 0.00 0.00 60 1011.9
20260902053048 26 113 9.7 12.9 0.00 0.00 0.00 60 1011.7
20260902052531 26 111 6.4 14.5 0.00 0.00 0.00 59 1011.8
20260902052024 26 115 8.0 14.5 0.00 0.00 0.00 59 1011.9
20260902051544 26 110 9.7 14.5 0.00 0.00 0.00 59 1011.9
20260902051024 26 89 9.7 14.5 0.00 0.00 0.00 59 1011.9
20260902050526 26 105 8.0 12.9 0.00 0.00 0.00 58 1011.9
20260902050050 26 98 8.0 12.9 0.00 0.00 0.00 58 1011.9
20260902045523 26 117 8.0 14.5 0.00 0.00 0.00 58 1011.9
20260902045024 26 97 9.7 14.5 0.00 0.00 0.00 57 1011.9
20260902044543 26 98 9.7 14.5 0.00 0.00 0.00 57 1011.8
20260902044025 26 97 9.7 14.5 0.00 0.00 0.00 57 1011.8
20260902043529 26 91 9.7 14.5 0.00 0.00 0.00 57 1011.8
20260902043040 27 107 8.0 14.5 0.00 0.00 0.00 56 1011.8
20260902042525 27 106 9.7 14.5 0.00 0.00 0.00 56 1011.9
20260902042024 27 101 8.0 14.5 0.00 0.00 0.00 55 1011.9
20260902041545 27 104 8.0 12.9 0.00 0.00 0.00 55 1011.8
20260902041027 27 99 8.0 14.5 0.00 0.00 0.00 54 1011.8
20260902040529 27 96 9.7 14.5 0.00 0.00 0.00 54 1011.7
20260902040045 27 101 9.7 14.5 0.00 0.00 0.00 54 1011.7
20260902035525 27 101 9.7 16.1 0.00 0.00 0.00 53 1011.7
20260902035023 27 95 9.7 16.1 0.00 0.00 0.00 53 1011.8
20260902034543 27 107 9.7 16.1 0.00 0.00 0.00 52 1011.8
20260902034027 27 101 9.7 16.1 0.00 0.00 0.00 52 1011.7
20260902033524 27 95 11.3 14.5 0.00 0.00 0.00 52 1011.8
20260902033046 27 101 11.3 14.5 0.00 0.00 0.00 51 1011.8
20260902032525 27 94 9.7 14.5 0.00 0.00 0.00 51 1011.8
20260902032028 27 98 9.7 12.9 0.00 0.00 0.00 50 1011.8
20260902031547 27 102 8.0 12.9 0.00 0.00 0.00 49 1011.8
20260902031024 28 113 8.0 11.3 0.00 0.00 0.00 49 1011.7
20260902030523 28 100 6.4 12.9 0.00 0.00 0.00 49 1011.8
20260902030048 28 94 6.4 14.5 0.00 0.00 0.00 48 1011.7
20260902025524 28 92 9.7 14.5 0.00 0.00 0.00 48 1011.6
20260902025029 28 103 9.7 14.5 0.00 0.00 0.00 48 1011.5
20260902024548 28 94 8.0 12.9 0.00 0.00 0.00 48 1011.5
20260902024025 28 94 6.4 12.9 0.00 0.00 0.00 47 1011.4
20260902023523 28 94 8.0 12.9 0.00 0.00 0.00 47 1011.4
20260902023051 28 90 6.4 12.9 0.00 0.00 0.00 46 1011.3
20260902022524 29 105 8.0 12.9 0.00 0.00 0.00 46 1011.2
20260902022024 29 101 8.0 12.9 0.00 0.00 0.00 45 1011.2
20260902021544 29 100 8.0 12.9 0.00 0.00 0.00 45 1011.1
20260902021024 29 96 6.4 12.9 0.00 0.00 0.00 45 1011.0
20260902020525 30 109 8.0 12.9 0.00 0.00 0.00 44 1011.0
20260902020046 30 100 8.0 12.9 0.00 0.00 0.00 43 1010.9
20260902015527 30 101 8.0 14.5 0.00 0.00 0.00 43 1010.8
20260902015024 30 104 8.0 14.5 0.00 0.00 0.00 42 1010.8
20260902014548 30 99 9.7 16.1 0.00 0.00 0.00 42 1010.8
20260902014025 30 99 9.7 16.1 0.00 0.00 0.00 42 1010.6
20260902013523 31 88 8.0 12.9 0.00 0.00 0.00 41 1010.6
20260902013044 31 96 8.0 12.9 0.00 0.00 0.00 41 1010.6
20260902012527 31 99 6.4 14.5 0.00 0.00 0.00 41 1010.6
20260902012026 31 103 9.7 14.5 0.00 0.00 0.00 40 1010.7
20260902011549 32 100 8.0 14.5 0.00 0.00 0.00 39 1010.6
20260902011024 32 100 8.0 12.9 0.00 0.00 0.00 39 1010.7
20260902010528 32 92 9.7 16.1 0.00 0.00 0.00 38 1010.8
20260902010057 32 96 9.7 16.1 0.00 0.00 0.00 38 1010.6
20260902005525 32 113 9.7 16.1 0.00 0.00 0.00 37 1010.8
20260902005024 33 105 9.7 16.1 0.00 0.00 0.00 37 1010.8
20260902004546 33 98 9.7 17.7 0.00 0.00 0.00 36 1010.8
20260902004024 33 104 11.3 19.3 0.00 0.00 0.00 36 1010.6
20260902003525 34 107 12.9 19.3 0.00 0.00 0.00 35 1010.7
20260902003054 34 107 11.3 19.3 0.00 0.00 0.00 34 1010.8
20260902002525 35 104 12.9 19.3 0.00 0.00 0.00 34 1010.8
20260902002029 35 102 11.3 19.3 0.00 0.00 0.00 33 1010.8
20260902001547 35 114 14.5 25.7 0.00 0.00 0.00 33 1010.8
20260902001024 35 132 14.5 27.4 0.00 0.00 0.00 33 1010.8
20260902000525 35 118 17.7 30.6 0.00 0.00 0.00 32 1010.8
20260902000048 36 106 16.1 30.6 0.00 0.00 0.00 32 1010.9
20260901235525 36 103 16.1 30.6 0.00 0.00 0.00 32 1010.9
20260901235025 36 107 16.1 30.6 0.00 0.00 0.00 31 1010.8
20260901234545 36 124 19.3 30.6 0.00 0.00 0.00 31 1010.9
20260901234026 36 119 14.5 22.5 0.00 0.00 0.00 31 1010.9
20260901233526 36 108 14.5 29.0 0.00 0.00 0.00 31 1011.0
20260901233048 36 107 17.7 29.0 0.00 0.00 0.00 30 1010.9
20260901232525 36 121 11.3 25.7 0.00 0.00 0.00 30 1011.0
20260901232026 37 116 12.9 27.4 0.00 0.00 0.00 30 1010.9
20260901231545 37 138 17.7 27.4 0.00 0.00 0.00 30 1011.0
20260901231024 37 123 14.5 29.0 0.00 0.00 0.00 29 1011.0
20260901230525 37 105 17.7 29.0 0.00 0.00 0.00 29 1011.1
20260901230045 37 101 16.1 25.7 0.00 0.00 0.00 29 1011.0
20260901225524 37 94 16.1 27.4 0.00 0.00 0.00 29 1011.0
20260901225027 37 99 17.7 27.4 0.00 0.00 0.00 29 1011.0
20260901224551 37 112 19.3 32.2 0.00 0.00 0.00 29 1010.9
20260901224025 37 121 14.5 32.2 0.00 0.00 0.00 29 1011.0
20260901223525 37 126 19.3 32.2 0.00 0.00 0.00 28 1011.0
20260901223046 37 101 11.3 25.7 0.00 0.00 0.00 29 1011.0
20260901222525 37 106 14.5 27.4 0.00 0.00 0.00 29 1011.0
20260901222025 37 139 14.5 29.0 0.00 0.00 0.00 28 1011.0
20260901221555 37 130 12.9 32.2 0.00 0.00 0.00 27 1011.0
20260901221024 38 142 19.3 32.2 0.00 0.00 0.00 27 1011.2
20260901220524 38 121 17.7 33.8 0.00 0.00 0.00 27 1011.1
20260901220043 38 115 14.5 35.4 0.00 0.00 0.00 28 1011.1